******** Week 364 almanac for PRN-1 ******** ID: 1 Health: 0 Eccentricity: 0.001668930054 Time of Applicability(s): 233472 Orbital Inclination(rad): 0.9579134778 Rate of Right Ascen(r/s): -7.828897533e-09 SQRT(A) (m 1/2): 5153.573242 Right Ascen at Week(rad): 2.635502582 Argument of Perigee(rad): 0.140351752 Mean Anom(rad): 1.584859815 Af0(s): 0.0002426831299 Af1(s/s): -7.275958e-12 week: 364 ******** Week 364 almanac for PRN-2 ******** ID: 2 Health: 0 Eccentricity: 0.01683664322 Time of Applicability(s): 233472 Orbital Inclination(rad): 0.9630187576 Rate of Right Ascen(r/s): -7.840326581e-09 SQRT(A) (m 1/2): 5153.532715 Right Ascen at Week(rad): 2.473126072 Argument of Perigee(rad): -0.7941848476 Mean Anom(rad): 3.091984705 Af0(s): 5.50182251e-05 Af1(s/s): 7.275958e-12 week: 364 ******** Week 364 almanac for PRN-3 ******** ID: 3 Health: 0 Eccentricity: 0.006608009338 Time of Applicability(s): 233472 Orbital Inclination(rad): 0.9938841288 Rate of Right Ascen(r/s): -7.554600394e-09 SQRT(A) (m 1/2): 5153.570312 Right Ascen at Week(rad): -2.660123049 Argument of Perigee(rad): 1.204379774 Mean Anom(rad): -0.4945151842 Af0(s): 0.0004115061768 Af1(s/s): -1.455192e-11 week: 364 ******** Week 364 almanac for PRN-4 ******** ID: 4 Health: 0 Eccentricity: 0.003715991974 Time of Applicability(s): 233472 Orbital Inclination(rad): 0.9705268745 Rate of Right Ascen(r/s): -8.171768958e-09 SQRT(A) (m 1/2): 5153.661133 Right Ascen at Week(rad): -1.590066587 Argument of Perigee(rad): -2.871599677 Mean Anom(rad): 2.462703541 Af0(s): 4.069841309e-05 Af1(s/s): 0 week: 364 ******** Week 364 almanac for PRN-5 ******** ID: 5 Health: 0 Eccentricity: 0.005447864532 Time of Applicability(s): 233472 Orbital Inclination(rad): 0.9804258442 Rate of Right Ascen(r/s): -7.657461821e-09 SQRT(A) (m 1/2): 5153.676758 Right Ascen at Week(rad): -2.720219817 Argument of Perigee(rad): 1.417943531 Mean Anom(rad): 3.134042968 Af0(s): -0.0001823891846 Af1(s/s): 0 week: 364 ******** Week 364 almanac for PRN-6 ******** ID: 6 Health: 0 Eccentricity: 0.003812789917 Time of Applicability(s): 233472 Orbital Inclination(rad): 0.9867355387 Rate of Right Ascen(r/s): -7.588887536e-09 SQRT(A) (m 1/2): 5153.611816 Right Ascen at Week(rad): 2.586847378 Argument of Perigee(rad): -0.5401762046 Mean Anom(rad): 0.7958611411 Af0(s): -0.0004838589111 Af1(s/s): 0 week: 364 ******** Week 364 almanac for PRN-7 ******** ID: 7 Health: 0 Eccentricity: 0.02066469192 Time of Applicability(s): 233472 Orbital Inclination(rad): 0.9511483828 Rate of Right Ascen(r/s): -7.863184676e-09 SQRT(A) (m 1/2): 5153.567871 Right Ascen at Week(rad): -0.5812832196 Argument of Perigee(rad): -1.982455202 Mean Anom(rad): -0.04449892512 Af0(s): -0.0001326466797 Af1(s/s): -3.637979e-12 week: 364 ******** Week 364 almanac for PRN-8 ******** ID: 8 Health: 0 Eccentricity: 0.01159763336 Time of Applicability(s): 233472 Orbital Inclination(rad): 0.9428552992 Rate of Right Ascen(r/s): -8.514640383e-09 SQRT(A) (m 1/2): 5153.634766 Right Ascen at Week(rad): 1.465035543 Argument of Perigee(rad): 0.5333163594 Mean Anom(rad): 2.769861473 Af0(s): 0.0003708077637 Af1(s/s): -7.275958e-12 week: 364 ******** Week 364 almanac for PRN-9 ******** ID: 9 Health: 0 Eccentricity: 0.00334405899 Time of Applicability(s): 233472 Orbital Inclination(rad): 0.9647265096 Rate of Right Ascen(r/s): -8.228914196e-09 SQRT(A) (m 1/2): 5153.700195 Right Ascen at Week(rad): -1.654536474 Argument of Perigee(rad): 2.055636123 Mean Anom(rad): -2.915115522 Af0(s): 0.0006029394531 Af1(s/s): -3.637979e-12 week: 364 ******** Week 364 almanac for PRN-10 ******** ID: 10 Health: 0 Eccentricity: 0.01093053818 Time of Applicability(s): 233472 Orbital Inclination(rad): 0.993416744 Rate of Right Ascen(r/s): -7.520313251e-09 SQRT(A) (m 1/2): 5153.608398 Right Ascen at Week(rad): -2.662633744 Argument of Perigee(rad): -2.255670064 Mean Anom(rad): -1.489111101 Af0(s): -0.0004665244019 Af1(s/s): 0 week: 364 ******** Week 364 almanac for PRN-11 ******** ID: 11 Health: 0 Eccentricity: 0.002205371857 Time of Applicability(s): 233472 Orbital Inclination(rad): 0.9636179688 Rate of Right Ascen(r/s): -7.817468486e-09 SQRT(A) (m 1/2): 5153.541992 Right Ascen at Week(rad): 2.60499861 Argument of Perigee(rad): -2.319322776 Mean Anom(rad): 1.937575029 Af0(s): -0.0003074991211 Af1(s/s): 1.455192e-11 week: 364 ******** Week 364 almanac for PRN-12 ******** ID: 12 Health: 0 Eccentricity: 0.008949279785 Time of Applicability(s): 233472 Orbital Inclination(rad): 0.9593755532 Rate of Right Ascen(r/s): -7.931758961e-09 SQRT(A) (m 1/2): 5153.710449 Right Ascen at Week(rad): 0.5362498729 Argument of Perigee(rad): 1.568437308 Mean Anom(rad): -0.7327582048 Af0(s): -0.0004808442139 Af1(s/s): 0 week: 364 ******** Week 364 almanac for PRN-13 ******** ID: 13 Health: 0 Eccentricity: 0.01008653641 Time of Applicability(s): 233472 Orbital Inclination(rad): 0.976099539 Rate of Right Ascen(r/s): -8.091765626e-09 SQRT(A) (m 1/2): 5153.614258 Right Ascen at Week(rad): -1.478980686 Argument of Perigee(rad): 0.9942476257 Mean Anom(rad): 2.536669054 Af0(s): 0.0005388771362 Af1(s/s): 0 week: 364 ******** Week 364 almanac for PRN-14 ******** ID: 14 Health: 0 Eccentricity: 0.006870746613 Time of Applicability(s): 233472 Orbital Inclination(rad): 0.9427474411 Rate of Right Ascen(r/s): -8.023191341e-09 SQRT(A) (m 1/2): 5153.606934 Right Ascen at Week(rad): 0.4811651321 Argument of Perigee(rad): -2.735955104 Mean Anom(rad): -0.8730219477 Af0(s): 0.0005863586182 Af1(s/s): 0 week: 364 ******** Week 364 almanac for PRN-15 ******** ID: 15 Health: 0 Eccentricity: 0.01664590836 Time of Applicability(s): 233472 Orbital Inclination(rad): 0.9427114885 Rate of Right Ascen(r/s): -8.446066098e-09 SQRT(A) (m 1/2): 5153.643066 Right Ascen at Week(rad): -1.799339616 Argument of Perigee(rad): 1.506738398 Mean Anom(rad): 1.77513635 Af0(s): 0.0003150358643 Af1(s/s): 3.637979e-12 week: 364 ******** Week 364 almanac for PRN-16 ******** ID: 16 Health: 0 Eccentricity: 0.01501941681 Time of Applicability(s): 233472 Orbital Inclination(rad): 0.9584887206 Rate of Right Ascen(r/s): -7.943188008e-09 SQRT(A) (m 1/2): 5153.61377 Right Ascen at Week(rad): 0.5531715985 Argument of Perigee(rad): 0.9316364172 Mean Anom(rad): -2.472641834 Af0(s): 0.0001869112305 Af1(s/s): 7.275958e-12 week: 364 ******** Week 364 almanac for PRN-17 ******** ID: 17 Health: 0 Eccentricity: 0.01261425018 Time of Applicability(s): 233472 Orbital Inclination(rad): 0.9584887206 Rate of Right Ascen(r/s): -8.308917528e-09 SQRT(A) (m 1/2): 5153.547852 Right Ascen at Week(rad): 1.570240934 Argument of Perigee(rad): -1.116779584 Mean Anom(rad): 2.722073627 Af0(s): -8.064315185e-05 Af1(s/s): -1.091394e-11 week: 364 ******** Week 364 almanac for PRN-18 ******** ID: 18 Health: 0 Eccentricity: 0.00581073761 Time of Applicability(s): 233472 Orbital Inclination(rad): 0.9717013285 Rate of Right Ascen(r/s): -7.714607058e-09 SQRT(A) (m 1/2): 5153.589355 Right Ascen at Week(rad): 2.581404667 Argument of Perigee(rad): -2.870309126 Mean Anom(rad): 0.7383312439 Af0(s): -0.0003067454468 Af1(s/s): 1.091394e-11 week: 364 ******** Week 364 almanac for PRN-19 ******** ID: 19 Health: 0 Eccentricity: 0.01125526428 Time of Applicability(s): 233472 Orbital Inclination(rad): 0.9576438327 Rate of Right Ascen(r/s): -8.308917528e-09 SQRT(A) (m 1/2): 5153.666016 Right Ascen at Week(rad): 1.614133157 Argument of Perigee(rad): 2.944430808 Mean Anom(rad): -1.779045455 Af0(s): 0.0005494285767 Af1(s/s): 0 week: 364 ******** Week 364 almanac for PRN-20 ******** ID: 20 Health: 0 Eccentricity: 0.002229690552 Time of Applicability(s): 233472 Orbital Inclination(rad): 0.9601305594 Rate of Right Ascen(r/s): -8.297488481e-09 SQRT(A) (m 1/2): 5153.696289 Right Ascen at Week(rad): -1.649066798 Argument of Perigee(rad): -1.948091935 Mean Anom(rad): -0.7932789151 Af0(s): 6.632333984e-05 Af1(s/s): 2.182787e-11 week: 364 ******** Week 364 almanac for PRN-21 ******** ID: 21 Health: 0 Eccentricity: 0.0008149147034 Time of Applicability(s): 233472 Orbital Inclination(rad): 0.9632824105 Rate of Right Ascen(r/s): -7.863184676e-09 SQRT(A) (m 1/2): 5153.731445 Right Ascen at Week(rad): -2.654750371 Argument of Perigee(rad): -0.2478139223 Mean Anom(rad): -1.098873654 Af0(s): 0.0003255873047 Af1(s/s): 3.637979e-12 week: 364 ******** Week 364 almanac for PRN-22 ******** ID: 22 Health: 0 Eccentricity: 0.01204252243 Time of Applicability(s): 233472 Orbital Inclination(rad): 0.9579314541 Rate of Right Ascen(r/s): -7.908900866e-09 SQRT(A) (m 1/2): 5153.575684 Right Ascen at Week(rad): 0.5565268069 Argument of Perigee(rad): -0.9927660759 Mean Anom(rad): -2.914191987 Af0(s): -2.034920654e-05 Af1(s/s): 7.275958e-12 week: 364 ******** Week 364 almanac for PRN-23 ******** ID: 23 Health: 0 Eccentricity: 0.006078720093 Time of Applicability(s): 233472 Orbital Inclination(rad): 0.988407338 Rate of Right Ascen(r/s): -7.554600394e-09 SQRT(A) (m 1/2): 5153.665527 Right Ascen at Week(rad): -2.694842846 Argument of Perigee(rad): -2.738671029 Mean Anom(rad): -0.4166577945 Af0(s): 0.0004981787231 Af1(s/s): 3.637979e-12 week: 364 ******** Week 364 almanac for PRN-24 ******** ID: 24 Health: 0 Eccentricity: 0.01796722412 Time of Applicability(s): 233472 Orbital Inclination(rad): 0.9350955135 Rate of Right Ascen(r/s): -8.114623721e-09 SQRT(A) (m 1/2): 5153.593262 Right Ascen at Week(rad): -0.6902879843 Argument of Perigee(rad): 1.138775506 Mean Anom(rad): 0.9383580694 Af0(s): -4.522045898e-05 Af1(s/s): 1.818989e-11 week: 364 ******** Week 364 almanac for PRN-25 ******** ID: 25 Health: 0 Eccentricity: 0.01290225983 Time of Applicability(s): 233472 Orbital Inclination(rad): 0.9477987919 Rate of Right Ascen(r/s): -7.988904198e-09 SQRT(A) (m 1/2): 5153.664551 Right Ascen at Week(rad): 0.4421295155 Argument of Perigee(rad): 1.159111986 Mean Anom(rad): -0.8508114338 Af0(s): 0.0003421681396 Af1(s/s): -3.637979e-12 week: 364 ******** Week 364 almanac for PRN-26 ******** ID: 26 Health: 0 Eccentricity: 0.01102113724 Time of Applicability(s): 233472 Orbital Inclination(rad): 0.9286000636 Rate of Right Ascen(r/s): -8.114623721e-09 SQRT(A) (m 1/2): 5153.681641 Right Ascen at Week(rad): 0.3670813031 Argument of Perigee(rad): 0.7113240441 Mean Anom(rad): -1.672155531 Af0(s): -0.0002750911255 Af1(s/s): -3.637979e-12 week: 364 ******** Week 364 almanac for PRN-27 ******** ID: 27 Health: 0 Eccentricity: 0.01438331604 Time of Applicability(s): 233472 Orbital Inclination(rad): 0.9519333495 Rate of Right Ascen(r/s): -8.411778956e-09 SQRT(A) (m 1/2): 5153.605957 Right Ascen at Week(rad): 1.497333029 Argument of Perigee(rad): 0.8897410649 Mean Anom(rad): 2.876404603 Af0(s): -6.933803711e-05 Af1(s/s): -1.455192e-11 week: 364 ******** Week 364 almanac for PRN-28 ******** ID: 28 Health: 0 Eccentricity: 0.0003795623779 Time of Applicability(s): 233472 Orbital Inclination(rad): 0.9620600196 Rate of Right Ascen(r/s): -7.817468486e-09 SQRT(A) (m 1/2): 5153.514648 Right Ascen at Week(rad): -0.6067013861 Argument of Perigee(rad): -0.2964346717 Mean Anom(rad): 0.5640487806 Af0(s): -0.0004476825439 Af1(s/s): 7.275958e-12 week: 364 ******** Week 364 almanac for PRN-29 ******** ID: 29 Health: 0 Eccentricity: 0.003452777863 Time of Applicability(s): 233472 Orbital Inclination(rad): 0.9611432264 Rate of Right Ascen(r/s): -8.308917528e-09 SQRT(A) (m 1/2): 5153.683594 Right Ascen at Week(rad): 1.587057797 Argument of Perigee(rad): 2.749514506 Mean Anom(rad): 2.723077306 Af0(s): -0.0002758447998 Af1(s/s): 7.275958e-12 week: 364 ******** Week 364 almanac for PRN-30 ******** ID: 30 Health: 0 Eccentricity: 0.008159160614 Time of Applicability(s): 233472 Orbital Inclination(rad): 0.9364197704 Rate of Right Ascen(r/s): -8.046049436e-09 SQRT(A) (m 1/2): 5153.693359 Right Ascen at Week(rad): -0.5906990753 Argument of Perigee(rad): -2.298495317 Mean Anom(rad): -0.2506605502 Af0(s): 0.000135661377 Af1(s/s): 1.455192e-11 week: 364 ******** Week 364 almanac for PRN-31 ******** ID: 31 Health: 0 Eccentricity: 0.0108332634 Time of Applicability(s): 233472 Orbital Inclination(rad): 0.9549174215 Rate of Right Ascen(r/s): -7.874613723e-09 SQRT(A) (m 1/2): 5153.536133 Right Ascen at Week(rad): -0.5569425097 Argument of Perigee(rad): 0.9403658015 Mean Anom(rad): -1.128642469 Af0(s): -0.0001251099365 Af1(s/s): 3.637979e-12 week: 364 ******** Week 364 almanac for PRN-32 ******** ID: 32 Health: 0 Eccentricity: 0.009379863739 Time of Applicability(s): 233472 Orbital Inclination(rad): 0.9677525264 Rate of Right Ascen(r/s): -8.206056101e-09 SQRT(A) (m 1/2): 5153.683105 Right Ascen at Week(rad): -1.637430865 Argument of Perigee(rad): -1.985842618 Mean Anom(rad): -2.849844564 Af0(s): -1.658083496e-05 Af1(s/s): 1.818989e-11 week: 364